Wetterdaten: Sonntag, 30.03.2014
Datum Zeit Temperatur Luftfeuchte Luftdruck Regen Wind Richtung Richtung Taupunkt Windchill Windben
30.03.2014 00:00 1,0 C 79 % 1017,7 hPa 0,0 l/m 0,0 km/h (0 Bft) SW 225 -2,2 C 16,1 C 0,0 km/h (0 Bft)
30.03.2014 00:05 0,5 C 78 % 1017,7 hPa 0,0 l/m 0,0 km/h (0 Bft) SW 225 -2,9 C 16,1 C 0,0 km/h (0 Bft)
30.03.2014 00:10 0,4 C 78 % 1017,6 hPa 0,0 l/m 0,0 km/h (0 Bft) SW 225 -3,0 C 16,1 C 0,0 km/h (0 Bft)
30.03.2014 00:15 0,1 C 78 % 1017,6 hPa 0,0 l/m 0,0 km/h (0 Bft) SW 225 -3,3 C 16,1 C 0,0 km/h (0 Bft)
30.03.2014 00:20 0,1 C 78 % 1017,6 hPa 0,0 l/m 0,0 km/h (0 Bft) SW 225 -3,3 C 16,1 C 0,0 km/h (0 Bft)
30.03.2014 00:25 0,2 C 79 % 1017,6 hPa 0,0 l/m 0,0 km/h (0 Bft) SW 225 -3,0 C 16,1 C 0,0 km/h (0 Bft)
30.03.2014 00:30 0,1 C 79 % 1017,4 hPa 0,0 l/m 0,0 km/h (0 Bft) SW 225 -3,1 C 16,1 C 0,0 km/h (0 Bft)
30.03.2014 00:35 0,3 C 81 % 1017,4 hPa 0,0 l/m 0,0 km/h (0 Bft) SW 225 -2,6 C 16,1 C 0,0 km/h (0 Bft)
30.03.2014 00:40 0,4 C 81 % 1017,4 hPa 0,0 l/m 0,0 km/h (0 Bft) SW 225 -2,5 C 16,1 C 0,0 km/h (0 Bft)
30.03.2014 00:45 0,4 C 81 % 1017,4 hPa 0,0 l/m 0,0 km/h (0 Bft) SW 225 -2,5 C 16,1 C 0,0 km/h (0 Bft)
30.03.2014 00:50 0,3 C 81 % 1017,4 hPa 0,0 l/m 0,0 km/h (0 Bft) SW 225 -2,6 C 16,1 C 0,0 km/h (0 Bft)
30.03.2014 00:55 0,7 C 82 % 1017,4 hPa 0,0 l/m 0,0 km/h (0 Bft) SW 225 -2,0 C 16,1 C 0,0 km/h (0 Bft)
30.03.2014 01:00 0,2 C 81 % 1017,4 hPa 0,0 l/m 0,0 km/h (0 Bft) SW 225 -2,7 C 16,1 C 0,0 km/h (0 Bft)
30.03.2014 01:05 0,2 C 80 % 1017,4 hPa 0,0 l/m 0,0 km/h (0 Bft) SW 225 -2,8 C 16,1 C 0,0 km/h (0 Bft)
30.03.2014 01:10 0,3 C 79 % 1017,4 hPa 0,0 l/m 0,0 km/h (0 Bft) SW 225 -2,9 C 16,1 C 0,0 km/h (0 Bft)
30.03.2014 01:15 0,1 C 79 % 1017,4 hPa 0,0 l/m 0,0 km/h (0 Bft) SW 225 -3,1 C 16,1 C 0,0 km/h (0 Bft)
30.03.2014 01:20 -0,3 C 79 % 1017,4 hPa 0,0 l/m 0,0 km/h (0 Bft) SW 225 -3,5 C 16,1 C 0,0 km/h (0 Bft)
30.03.2014 01:25 -0,2 C 79 % 1017,4 hPa 0,0 l/m 0,0 km/h (0 Bft) SW 225 -3,4 C 16,1 C 0,0 km/h (0 Bft)
30.03.2014 01:30 0,3 C 79 % 1017,2 hPa 0,0 l/m 0,0 km/h (0 Bft) SW 225 -2,9 C 16,1 C 0,0 km/h (0 Bft)
30.03.2014 01:35 0,1 C 79 % 1017,2 hPa 0,0 l/m 0,0 km/h (0 Bft) SW 225 -3,1 C 16,1 C 0,0 km/h (0 Bft)
30.03.2014 01:40 0,1 C 79 % 1017,2 hPa 0,0 l/m 0,0 km/h (0 Bft) SW 225 -3,1 C 16,1 C 0,0 km/h (0 Bft)
30.03.2014 01:45 -0,1 C 78 % 1017,2 hPa 0,0 l/m 0,0 km/h (0 Bft) SW 225 -3,5 C 16,1 C 0,0 km/h (0 Bft)
30.03.2014 01:50 -0,1 C 78 % 1017,2 hPa 0,0 l/m 0,0 km/h (0 Bft) SW 225 -3,5 C 16,1 C 0,0 km/h (0 Bft)
30.03.2014 01:55 -0,5 C 78 % 1017,2 hPa 0,0 l/m 0,0 km/h (0 Bft) SW 225 -3,9 C 16,1 C 0,0 km/h (0 Bft)
30.03.2014 03:00 0,0 C 78 % 1017,2 hPa 0,0 l/m 0,0 km/h (0 Bft) SW 225 -3,4 C 16,1 C 0,0 km/h (0 Bft)
30.03.2014 03:05 0,2 C 79 % 1017,2 hPa 0,0 l/m 0,0 km/h (0 Bft) SW 225 -3,0 C 16,1 C 0,0 km/h (0 Bft)
30.03.2014 03:10 0,1 C 79 % 1016,9 hPa 0,0 l/m 0,0 km/h (0 Bft) SW 225 -3,1 C 16,1 C 0,0 km/h (0 Bft)
30.03.2014 03:15 0,7 C 79 % 1016,9 hPa 0,0 l/m 0,0 km/h (0 Bft) SW 225 -2,5 C 16,1 C 0,0 km/h (0 Bft)
30.03.2014 03:20 0,3 C 78 % 1016,9 hPa 0,0 l/m 0,0 km/h (0 Bft) SW 225 -3,1 C 16,1 C 0,0 km/h (0 Bft)
30.03.2014 03:25 0,0 C 78 % 1016,9 hPa 0,0 l/m 0,0 km/h (0 Bft) SW 225 -3,4 C 16,1 C 0,0 km/h (0 Bft)
30.03.2014 03:30 -0,1 C 78 % 1017,0 hPa 0,0 l/m 0,0 km/h (0 Bft) SW 225 -3,5 C 16,1 C 0,0 km/h (0 Bft)
30.03.2014 03:35 -0,3 C 78 % 1017,0 hPa 0,0 l/m 0,0 km/h (0 Bft) SW 225 -3,7 C 16,1 C 0,0 km/h (0 Bft)
30.03.2014 03:40 0,1 C 79 % 1017,0 hPa 0,0 l/m 0,0 km/h (0 Bft) SW 225 -3,1 C 16,1 C 0,0 km/h (0 Bft)
30.03.2014 03:45 0,2 C 79 % 1017,0 hPa 0,0 l/m 0,0 km/h (0 Bft) SW 225 -3,0 C 16,1 C 0,0 km/h (0 Bft)
30.03.2014 03:50 0,9 C 79 % 1016,8 hPa 0,0 l/m 0,0 km/h (0 Bft) SW 225 -2,3 C 16,1 C 0,0 km/h (0 Bft)
30.03.2014 03:55 0,2 C 78 % 1016,8 hPa 0,0 l/m 0,0 km/h (0 Bft) SW 225 -3,2 C 16,1 C 0,0 km/h (0 Bft)
30.03.2014 04:00 -0,2 C 77 % 1016,8 hPa 0,0 l/m 0,0 km/h (0 Bft) SW 225 -3,7 C 16,1 C 0,0 km/h (0 Bft)
30.03.2014 04:05 -0,6 C 77 % 1016,8 hPa 0,0 l/m 0,0 km/h (0 Bft) SW 225 -4,1 C 16,1 C 0,0 km/h (0 Bft)
30.03.2014 04:10 -0,5 C 77 % 1017,3 hPa 0,0 l/m 0,0 km/h (0 Bft) SW 225 -4,0 C 16,1 C 0,0 km/h (0 Bft)
30.03.2014 04:15 -0,1 C 78 % 1017,3 hPa 0,0 l/m 0,0 km/h (0 Bft) SW 225 -3,5 C 16,1 C 0,0 km/h (0 Bft)
30.03.2014 04:20 -0,3 C 78 % 1017,3 hPa 0,0 l/m 0,0 km/h (0 Bft) SW 225 -3,7 C 16,1 C 0,0 km/h (0 Bft)
30.03.2014 04:25 -0,3 C 78 % 1017,3 hPa 0,0 l/m 0,0 km/h (0 Bft) SW 225 -3,7 C 16,1 C 0,0 km/h (0 Bft)
30.03.2014 04:30 -0,1 C 78 % 1017,0 hPa 0,0 l/m 0,0 km/h (0 Bft) SW 225 -3,5 C 16,1 C 0,0 km/h (0 Bft)
30.03.2014 04:35 -0,3 C 78 % 1017,0 hPa 0,0 l/m 0,0 km/h (0 Bft) SW 225 -3,7 C 16,1 C 0,0 km/h (0 Bft)
30.03.2014 04:40 0,2 C 79 % 1017,0 hPa 0,0 l/m 0,0 km/h (0 Bft) SW 225 -3,0 C 16,1 C 0,0 km/h (0 Bft)
30.03.2014 04:45 0,0 C 78 % 1017,0 hPa 0,0 l/m 0,0 km/h (0 Bft) SW 225 -3,4 C 16,1 C 0,0 km/h (0 Bft)
30.03.2014 04:50 -0,1 C 77 % 1017,0 hPa 0,0 l/m 0,0 km/h (0 Bft) SW 225 -3,6 C 16,1 C 0,0 km/h (0 Bft)
30.03.2014 04:55 -0,6 C 77 % 1017,0 hPa 0,0 l/m 0,0 km/h (0 Bft) SW 225 -4,1 C 16,1 C 0,0 km/h (0 Bft)
30.03.2014 05:00 -0,5 C 77 % 1017,0 hPa 0,0 l/m 0,0 km/h (0 Bft) SW 225 -4,0 C 16,1 C 0,0 km/h (0 Bft)
30.03.2014 05:05 -0,3 C 77 % 1017,0 hPa 0,0 l/m 0,0 km/h (0 Bft) SW 225 -3,8 C 16,1 C 0,0 km/h (0 Bft)
30.03.2014 05:10 -0,6 C 77 % 1016,9 hPa 0,0 l/m 0,0 km/h (0 Bft) SW 225 -4,1 C 16,1 C 0,0 km/h (0 Bft)
30.03.2014 05:15 0,0 C 77 % 1016,9 hPa 0,0 l/m 0,0 km/h (0 Bft) SW 225 -3,5 C 16,1 C 0,0 km/h (0 Bft)
30.03.2014 05:20 0,0 C 77 % 1016,9 hPa 0,0 l/m 0,0 km/h (0 Bft) SW 225 -3,5 C 16,1 C 0,0 km/h (0 Bft)
30.03.2014 05:25 -0,2 C 76 % 1016,9 hPa 0,0 l/m 0,0 km/h (0 Bft) SW 225 -3,9 C 16,1 C 0,0 km/h (0 Bft)
30.03.2014 05:30 0,3 C 76 % 1017,0 hPa 0,0 l/m 0,0 km/h (0 Bft) SW 225 -3,4 C 16,1 C 0,0 km/h (0 Bft)
30.03.2014 05:35 -0,3 C 75 % 1017,0 hPa 0,0 l/m 0,0 km/h (0 Bft) SW 225 -4,2 C 16,1 C 0,0 km/h (0 Bft)
30.03.2014 05:40 -0,5 C 75 % 1017,0 hPa 0,0 l/m 0,0 km/h (0 Bft) SW 225 -4,4 C 16,1 C 0,0 km/h (0 Bft)
30.03.2014 05:45 0,5 C 76 % 1017,0 hPa 0,0 l/m 0,0 km/h (0 Bft) SW 225 -3,2 C 16,1 C 0,0 km/h (0 Bft)
30.03.2014 05:50 0,2 C 75 % 1017,1 hPa 0,0 l/m 0,0 km/h (0 Bft) SW 225 -3,7 C 16,1 C 0,0 km/h (0 Bft)
30.03.2014 05:55 -0,3 C 75 % 1017,1 hPa 0,0 l/m 0,0 km/h (0 Bft) SW 225 -4,2 C 16,1 C 0,0 km/h (0 Bft)
30.03.2014 06:00 -0,1 C 75 % 1017,1 hPa 0,0 l/m 0,0 km/h (0 Bft) SW 225 -4,0 C 16,1 C 0,0 km/h (0 Bft)
30.03.2014 06:05 -0,6 C 75 % 1017,1 hPa 0,0 l/m 0,0 km/h (0 Bft) SW 225 -4,5 C 16,1 C 0,0 km/h (0 Bft)
30.03.2014 06:10 0,0 C 75 % 1017,2 hPa 0,0 l/m 0,0 km/h (0 Bft) SW 225 -3,9 C 16,1 C 0,0 km/h (0 Bft)
30.03.2014 06:15 1,2 C 74 % 1017,2 hPa 0,0 l/m 0,0 km/h (0 Bft) SW 225 -2,9 C 16,1 C 0,0 km/h (0 Bft)
30.03.2014 06:20 1,7 C 71 % 1017,2 hPa 0,0 l/m 0,0 km/h (0 Bft) SW 225 -3,0 C 16,1 C 0,0 km/h (0 Bft)
30.03.2014 06:25 0,7 C 69 % 1017,2 hPa 0,0 l/m 0,0 km/h (0 Bft) SW 225 -4,3 C 16,1 C 0,0 km/h (0 Bft)
30.03.2014 06:30 0,0 C 69 % 1017,4 hPa 0,0 l/m 0,0 km/h (0 Bft) SW 225 -5,0 C 16,1 C 0,0 km/h (0 Bft)
30.03.2014 06:35 -0,6 C 71 % 1017,4 hPa 0,0 l/m 0,0 km/h (0 Bft) SW 225 -5,2 C 16,1 C 0,0 km/h (0 Bft)
30.03.2014 06:40 -0,7 C 72 % 1017,4 hPa 0,0 l/m 0,0 km/h (0 Bft) SW 225 -5,1 C 16,1 C 0,0 km/h (0 Bft)
30.03.2014 06:45 -0,5 C 74 % 1017,4 hPa 0,0 l/m 0,0 km/h (0 Bft) SW 225 -4,5 C 16,1 C 0,0 km/h (0 Bft)
30.03.2014 06:50 -0,8 C 73 % 1017,2 hPa 0,0 l/m 0,0 km/h (0 Bft) SW 225 -5,0 C 16,1 C 0,0 km/h (0 Bft)
30.03.2014 06:55 -0,4 C 75 % 1017,2 hPa 0,0 l/m 0,0 km/h (0 Bft) SW 225 -4,3 C 16,1 C 0,0 km/h (0 Bft)
30.03.2014 07:00 -0,8 C 74 % 1017,2 hPa 0,0 l/m 0,0 km/h (0 Bft) SW 225 -4,8 C 16,1 C 0,0 km/h (0 Bft)
30.03.2014 07:05 -0,8 C 74 % 1017,2 hPa 0,0 l/m 0,0 km/h (0 Bft) SW 225 -4,8 C 16,1 C 0,0 km/h (0 Bft)
30.03.2014 07:10 -1,2 C 74 % 1017,4 hPa 0,0 l/m 0,0 km/h (0 Bft) SW 225 -5,2 C 16,1 C 0,0 km/h (0 Bft)
30.03.2014 07:15 -1,4 C 74 % 1017,4 hPa 0,0 l/m 0,0 km/h (0 Bft) SW 225 -5,4 C 16,1 C 0,0 km/h (0 Bft)
30.03.2014 07:20 -1,1 C 76 % 1017,4 hPa 0,0 l/m 0,0 km/h (0 Bft) SW 225 -4,8 C 16,1 C 0,0 km/h (0 Bft)
30.03.2014 07:25 -1,1 C 76 % 1017,4 hPa 0,0 l/m 0,0 km/h (0 Bft) SW 225 -4,8 C 16,1 C 0,0 km/h (0 Bft)
30.03.2014 07:30 -1,2 C 75 % 1017,4 hPa 0,0 l/m 0,0 km/h (0 Bft) SW 225 -5,0 C 16,1 C 0,0 km/h (0 Bft)
30.03.2014 07:35 -0,9 C 76 % 1017,4 hPa 0,0 l/m 0,0 km/h (0 Bft) SW 225 -4,6 C 16,1 C 0,0 km/h (0 Bft)
30.03.2014 07:40 -0,9 C 76 % 1017,4 hPa 0,0 l/m 0,0 km/h (0 Bft) SW 225 -4,6 C 16,1 C 0,0 km/h (0 Bft)
30.03.2014 07:45 -0,6 C 76 % 1017,4 hPa 0,0 l/m 0,0 km/h (0 Bft) SW 225 -4,3 C 16,1 C 0,0 km/h (0 Bft)
30.03.2014 07:50 -0,6 C 76 % 1017,6 hPa 0,0 l/m 0,0 km/h (0 Bft) SW 225 -4,3 C 16,1 C 0,0 km/h (0 Bft)
30.03.2014 07:55 -0,1 C 76 % 1017,6 hPa 0,0 l/m 0,0 km/h (0 Bft) SW 225 -3,8 C 16,1 C 0,0 km/h (0 Bft)
30.03.2014 08:00 0,1 C 76 % 1017,6 hPa 0,0 l/m 0,0 km/h (0 Bft) SW 225 -3,6 C 16,1 C 0,0 km/h (0 Bft)
30.03.2014 08:05 0,6 C 76 % 1017,6 hPa 0,0 l/m 0,0 km/h (0 Bft) SW 225 -3,1 C 16,1 C 0,0 km/h (0 Bft)
30.03.2014 08:10 0,4 C 75 % 1017,7 hPa 0,0 l/m 0,0 km/h (0 Bft) SW 225 -3,5 C 16,1 C 0,0 km/h (0 Bft)
30.03.2014 08:15 0,6 C 75 % 1017,7 hPa 0,0 l/m 0,0 km/h (0 Bft) SW 225 -3,3 C 16,1 C 0,0 km/h (0 Bft)
30.03.2014 08:18 2,1 C 74 % 1017,7 hPa 0,0 l/m 0,0 km/h (0 Bft) SW 225 -2,0 C 16,1 C 0,0 km/h (0 Bft)
30.03.2014 08:20 2,1 C 74 % 1017,7 hPa 0,0 l/m 0,0 km/h (0 Bft) SW 225 -2,0 C 16,1 C 0,0 km/h (0 Bft)
30.03.2014 08:25 6,2 C 68 % 1017,7 hPa 0,0 l/m 0,0 km/h (0 Bft) SW 225 0,7 C 16,1 C 0,0 km/h (0 Bft)
30.03.2014 08:30 7,0 C 67 % 1017,6 hPa 0,0 l/m 0,0 km/h (0 Bft) SW 225 1,3 C 16,1 C 0,0 km/h (0 Bft)
30.03.2014 08:35 7,8 C 63 % 1017,6 hPa 0,0 l/m 0,0 km/h (0 Bft) SW 225 1,2 C 16,1 C 0,0 km/h (0 Bft)
30.03.2014 08:40 7,5 C 58 % 1017,6 hPa 0,0 l/m 0,0 km/h (0 Bft) SW 225 -0,2 C 16,1 C 0,0 km/h (0 Bft)
30.03.2014 08:45 6,9 C 58 % 1017,6 hPa 0,0 l/m 0,0 km/h (0 Bft) SW 225 -0,8 C 16,1 C 0,0 km/h (0 Bft)
30.03.2014 08:50 5,9 C 59 % 1017,8 hPa 0,0 l/m 0,0 km/h (0 Bft) SW 225 -1,5 C 16,1 C 0,0 km/h (0 Bft)
30.03.2014 08:55 5,2 C 60 % 1017,8 hPa 0,0 l/m 0,0 km/h (0 Bft) SW 225 -1,9 C 16,1 C 0,0 km/h (0 Bft)
30.03.2014 09:00 6,0 C 58 % 1017,8 hPa 0,0 l/m 0,0 km/h (0 Bft) SW 225 -1,6 C 16,1 C 0,0 km/h (0 Bft)
30.03.2014 09:05 10,1 C 56 % 1017,8 hPa 0,0 l/m 0,0 km/h (0 Bft) SW 225 1,7 C 16,1 C 0,0 km/h (0 Bft)
30.03.2014 09:10 10,2 C 54 % 1018,2 hPa 0,0 l/m 0,0 km/h (0 Bft) SW 225 1,3 C 16,1 C 0,0 km/h (0 Bft)
30.03.2014 09:15 12,5 C 55 % 1018,2 hPa 0,0 l/m 0,0 km/h (0 Bft) SW 225 3,7 C 16,1 C 0,0 km/h (0 Bft)
30.03.2014 09:20 13,8 C 52 % 1018,2 hPa 0,0 l/m 0,0 km/h (0 Bft) SW 225 4,1 C 16,1 C 0,0 km/h (0 Bft)
30.03.2014 09:25 13,8 C 50 % 1018,2 hPa 0,0 l/m 0,0 km/h (0 Bft) SW 225 3,6 C 16,1 C 0,0 km/h (0 Bft)
30.03.2014 09:30 13,7 C 48 % 1018,1 hPa 0,0 l/m 0,0 km/h (0 Bft) SW 225 2,9 C 16,1 C 0,0 km/h (0 Bft)
30.03.2014 09:35 13,7 C 47 % 1018,1 hPa 0,0 l/m 0,0 km/h (0 Bft) SW 225 2,6 C 16,1 C 0,0 km/h (0 Bft)
30.03.2014 09:40 14,9 C 48 % 1018,1 hPa 0,0 l/m 0,0 km/h (0 Bft) SW 225 4,0 C 16,1 C 0,0 km/h (0 Bft)
30.03.2014 09:45 15,9 C 46 % 1018,1 hPa 0,0 l/m 0,0 km/h (0 Bft) SW 225 4,3 C 16,1 C 0,0 km/h (0 Bft)
30.03.2014 09:50 15,8 C 44 % 1018,4 hPa 0,0 l/m 0,0 km/h (0 Bft) SW 225 3,6 C 16,1 C 0,0 km/h (0 Bft)
30.03.2014 09:55 16,6 C 43 % 1018,4 hPa 0,0 l/m 0,0 km/h (0 Bft) SW 225 4,0 C 16,1 C 0,0 km/h (0 Bft)
30.03.2014 10:00 16,6 C 41 % 1018,4 hPa 0,0 l/m 0,0 km/h (0 Bft) SW 225 3,3 C 16,1 C 0,0 km/h (0 Bft)
30.03.2014 10:05 17,7 C 41 % 1018,4 hPa 0,0 l/m 0,0 km/h (0 Bft) SW 225 4,3 C 16,1 C 0,0 km/h (0 Bft)
30.03.2014 10:10 17,9 C 40 % 1018,9 hPa 0,0 l/m 0,0 km/h (0 Bft) SW 225 4,1 C 16,1 C 0,0 km/h (0 Bft)
30.03.2014 10:15 17,8 C 38 % 1018,9 hPa 0,0 l/m 0,0 km/h (0 Bft) SW 225 3,3 C 16,1 C 0,0 km/h (0 Bft)
30.03.2014 10:20 17,3 C 36 % 1018,9 hPa 0,0 l/m 0,0 km/h (0 Bft) SW 225 2,1 C 16,1 C 0,0 km/h (0 Bft)
30.03.2014 10:25 17,9 C 37 % 1018,9 hPa 0,0 l/m 0,0 km/h (0 Bft) SW 225 3,0 C 16,1 C 0,0 km/h (0 Bft)
30.03.2014 10:30 18,8 C 37 % 1019,1 hPa 0,0 l/m 0,0 km/h (0 Bft) SW 225 3,8 C 16,1 C 0,0 km/h (0 Bft)
30.03.2014 10:35 19,1 C 34 % 1019,1 hPa 0,0 l/m 0,0 km/h (0 Bft) SW 225 2,9 C 16,1 C 0,0 km/h (0 Bft)
30.03.2014 10:40 18,9 C 34 % 1019,1 hPa 0,0 l/m 0,0 km/h (0 Bft) SW 225 2,7 C 16,1 C 0,0 km/h (0 Bft)
30.03.2014 10:45 20,0 C 34 % 1019,1 hPa 0,0 l/m 0,0 km/h (0 Bft) SW 225 3,7 C 16,1 C 0,0 km/h (0 Bft)
30.03.2014 10:50 19,5 C 32 % 1019,1 hPa 0,0 l/m 0,0 km/h (0 Bft) SW 225 2,4 C 16,1 C 0,0 km/h (0 Bft)
30.03.2014 10:55 19,0 C 31 % 1019,1 hPa 0,0 l/m 0,0 km/h (0 Bft) SW 225 1,5 C 16,1 C 0,0 km/h (0 Bft)
30.03.2014 11:00 19,4 C 30 % 1019,1 hPa 0,0 l/m 0,0 km/h (0 Bft) SW 225 1,4 C 16,1 C 0,0 km/h (0 Bft)
30.03.2014 11:05 21,0 C 31 % 1019,1 hPa 0,0 l/m 0,0 km/h (0 Bft) SW 225 3,2 C 16,1 C 0,0 km/h (0 Bft)
30.03.2014 11:10 20,2 C 27 % 1019,2 hPa 0,0 l/m 0,0 km/h (0 Bft) SW 225 0,6 C 16,1 C 0,0 km/h (0 Bft)
30.03.2014 11:15 20,4 C 26 % 1019,2 hPa 0,0 l/m 0,0 km/h (0 Bft) SW 225 0,3 C 16,1 C 0,0 km/h (0 Bft)
30.03.2014 11:20 19,5 C 26 % 1019,2 hPa 0,0 l/m 0,0 km/h (0 Bft) SW 225 -0,5 C 16,1 C 0,0 km/h (0 Bft)
30.03.2014 11:25 20,3 C 27 % 1019,2 hPa 0,0 l/m 0,0 km/h (0 Bft) SW 225 0,7 C 16,1 C 0,0 km/h (0 Bft)
30.03.2014 11:30 19,9 C 27 % 1019,2 hPa 0,0 l/m 0,0 km/h (0 Bft) SW 225 0,4 C 16,1 C 0,0 km/h (0 Bft)
30.03.2014 11:35 21,1 C 25 % 1019,2 hPa 0,0 l/m 0,0 km/h (0 Bft) SW 225 0,3 C 16,1 C 0,0 km/h (0 Bft)
30.03.2014 11:40 20,3 C 24 % 1019,2 hPa 0,0 l/m 0,0 km/h (0 Bft) SW 225 -0,9 C 16,1 C 0,0 km/h (0 Bft)
30.03.2014 11:45 21,0 C 25 % 1019,2 hPa 0,0 l/m 0,0 km/h (0 Bft) SW 225 0,2 C 16,1 C 0,0 km/h (0 Bft)
30.03.2014 11:50 21,0 C 22 % 1019,2 hPa 0,0 l/m 0,0 km/h (0 Bft) SW 225 -1,5 C 16,1 C 0,0 km/h (0 Bft)
30.03.2014 11:55 21,2 C 22 % 1019,2 hPa 0,0 l/m 0,0 km/h (0 Bft) SW 225 -1,4 C 16,1 C 0,0 km/h (0 Bft)
30.03.2014 12:00 21,8 C 22 % 1019,2 hPa 0,0 l/m 0,0 km/h (0 Bft) SW 225 -0,9 C 16,1 C 0,0 km/h (0 Bft)
30.03.2014 12:05 21,1 C 21 % 1019,2 hPa 0,0 l/m 0,0 km/h (0 Bft) SW 225 -2,1 C 16,1 C 0,0 km/h (0 Bft)
30.03.2014 12:10 20,8 C 21 % 1019,1 hPa 0,0 l/m 0,0 km/h (0 Bft) SW 225 -2,3 C 16,1 C 0,0 km/h (0 Bft)
30.03.2014 12:15 21,8 C 22 % 1019,1 hPa 0,0 l/m 0,0 km/h (0 Bft) SW 225 -0,9 C 16,1 C 0,0 km/h (0 Bft)
30.03.2014 12:20 20,6 C 21 % 1019,1 hPa 0,0 l/m 0,0 km/h (0 Bft) SW 225 -2,5 C 16,1 C 0,0 km/h (0 Bft)
30.03.2014 12:25 22,1 C 21 % 1019,1 hPa 0,0 l/m 0,0 km/h (0 Bft) SW 225 -1,2 C 16,1 C 0,0 km/h (0 Bft)
30.03.2014 12:30 21,8 C 21 % 1019,1 hPa 0,0 l/m 0,0 km/h (0 Bft) SW 225 -1,5 C 16,1 C 0,0 km/h (0 Bft)
30.03.2014 12:35 20,6 C 20 % 1019,1 hPa 0,0 l/m 0,0 km/h (0 Bft) SW 225 -3,1 C 16,1 C 0,0 km/h (0 Bft)
30.03.2014 12:40 21,1 C 20 % 1019,1 hPa 0,0 l/m 0,0 km/h (0 Bft) SW 225 -2,7 C 16,1 C 0,0 km/h (0 Bft)
30.03.2014 12:45 21,8 C 20 % 1019,1 hPa 0,0 l/m 0,0 km/h (0 Bft) SW 225 -2,1 C 16,1 C 0,0 km/h (0 Bft)
30.03.2014 12:50 21,0 C 21 % 1019,1 hPa 0,0 l/m 0,0 km/h (0 Bft) SW 225 -2,2 C 16,1 C 0,0 km/h (0 Bft)
30.03.2014 12:55 21,0 C 21 % 1019,1 hPa 0,0 l/m 0,0 km/h (0 Bft) SW 225 -2,2 C 16,1 C 0,0 km/h (0 Bft)
30.03.2014 13:00 21,6 C 21 % 1019,1 hPa 0,0 l/m 0,0 km/h (0 Bft) SW 225 -1,7 C 16,1 C 0,0 km/h (0 Bft)
30.03.2014 13:05 21,5 C 20 % 1019,1 hPa 0,0 l/m 0,0 km/h (0 Bft) SW 225 -2,4 C 16,1 C 0,0 km/h (0 Bft)
30.03.2014 13:10 20,9 C 21 % 1019,0 hPa 0,0 l/m 0,0 km/h (0 Bft) SW 225 -2,2 C 16,1 C 0,0 km/h (0 Bft)
30.03.2014 13:13 20,5 C 21 % 1019,0 hPa 0,0 l/m 0,0 km/h (0 Bft) SW 225 -2,6 C 16,1 C 0,0 km/h (0 Bft)
30.03.2014 13:15 20,5 C 21 % 1019,0 hPa 0,0 l/m 0,0 km/h (0 Bft) SW 225 -2,6 C 16,1 C 0,0 km/h (0 Bft)
30.03.2014 13:20 20,3 C 22 % 1019,0 hPa 0,0 l/m 0,0 km/h (0 Bft) SW 225 -2,1 C 16,1 C 0,0 km/h (0 Bft)
30.03.2014 13:25 20,5 C 22 % 1019,0 hPa 0,0 l/m 0,0 km/h (0 Bft) SW 225 -1,9 C 16,1 C 0,0 km/h (0 Bft)
30.03.2014 13:30 20,0 C 22 % 1018,9 hPa 0,0 l/m 0,0 km/h (0 Bft) SW 225 -2,4 C 16,1 C 0,0 km/h (0 Bft)
30.03.2014 13:35 20,6 C 22 % 1018,9 hPa 0,0 l/m 0,0 km/h (0 Bft) SW 225 -1,9 C 16,1 C 0,0 km/h (0 Bft)
30.03.2014 13:40 21,3 C 22 % 1018,9 hPa 0,0 l/m 0,0 km/h (0 Bft) SW 225 -1,3 C 16,1 C 0,0 km/h (0 Bft)
30.03.2014 13:45 21,3 C 22 % 1018,9 hPa 0,0 l/m 0,0 km/h (0 Bft) SW 225 -1,3 C 16,1 C 0,0 km/h (0 Bft)
30.03.2014 13:50 21,3 C 22 % 1018,8 hPa 0,0 l/m 0,0 km/h (0 Bft) SW 225 -1,3 C 16,1 C 0,0 km/h (0 Bft)
30.03.2014 13:55 21,4 C 22 % 1018,8 hPa 0,0 l/m 0,0 km/h (0 Bft) SW 225 -1,2 C 16,1 C 0,0 km/h (0 Bft)
30.03.2014 14:00 20,3 C 22 % 1018,8 hPa 0,0 l/m 0,0 km/h (0 Bft) SW 225 -2,1 C 16,1 C 0,0 km/h (0 Bft)
30.03.2014 14:05 20,6 C 22 % 1018,8 hPa 0,0 l/m 0,0 km/h (0 Bft) SW 225 -1,9 C 16,1 C 0,0 km/h (0 Bft)
30.03.2014 14:10 19,9 C 22 % 1018,4 hPa 0,0 l/m 0,0 km/h (0 Bft) SW 225 -2,4 C 16,1 C 0,0 km/h (0 Bft)
30.03.2014 14:15 20,8 C 22 % 1018,4 hPa 0,0 l/m 0,0 km/h (0 Bft) SW 225 -1,7 C 16,1 C 0,0 km/h (0 Bft)
30.03.2014 14:20 20,2 C 22 % 1018,4 hPa 0,0 l/m 0,0 km/h (0 Bft) SW 225 -2,2 C 16,1 C 0,0 km/h (0 Bft)
30.03.2014 14:25 20,1 C 22 % 1018,4 hPa 0,0 l/m 0,0 km/h (0 Bft) SW 225 -2,3 C 16,1 C 0,0 km/h (0 Bft)
30.03.2014 14:30 20,2 C 22 % 1017,8 hPa 0,0 l/m 0,0 km/h (0 Bft) SW 225 -2,2 C 16,1 C 0,0 km/h (0 Bft)
30.03.2014 14:35 20,5 C 22 % 1017,8 hPa 0,0 l/m 0,0 km/h (0 Bft) SW 225 -1,9 C 16,1 C 0,0 km/h (0 Bft)
30.03.2014 14:40 21,2 C 21 % 1017,8 hPa 0,0 l/m 0,0 km/h (0 Bft) SW 225 -2,0 C 16,1 C 0,0 km/h (0 Bft)
30.03.2014 14:45 21,3 C 21 % 1017,8 hPa 0,0 l/m 0,0 km/h (0 Bft) SW 225 -1,9 C 16,1 C 0,0 km/h (0 Bft)
30.03.2014 14:50 21,3 C 21 % 1017,5 hPa 0,0 l/m 0,0 km/h (0 Bft) SW 225 -1,9 C 16,1 C 0,0 km/h (0 Bft)
30.03.2014 14:55 21,3 C 21 % 1017,5 hPa 0,0 l/m 0,0 km/h (0 Bft) SW 225 -1,9 C 16,1 C 0,0 km/h (0 Bft)
30.03.2014 15:00 21,3 C 21 % 1017,5 hPa 0,0 l/m 0,0 km/h (0 Bft) SW 225 -1,9 C 16,1 C 0,0 km/h (0 Bft)
30.03.2014 15:05 21,6 C 20 % 1017,5 hPa 0,0 l/m 0,0 km/h (0 Bft) SW 225 -2,3 C 16,1 C 0,0 km/h (0 Bft)
30.03.2014 15:10 20,8 C 21 % 1017,3 hPa 0,0 l/m 0,0 km/h (0 Bft) SW 225 -2,3 C 16,1 C 0,0 km/h (0 Bft)
30.03.2014 15:15 20,5 C 21 % 1017,3 hPa 0,0 l/m 0,0 km/h (0 Bft) SW 225 -2,6 C 16,1 C 0,0 km/h (0 Bft)
30.03.2014 15:20 21,0 C 21 % 1017,3 hPa 0,0 l/m 0,0 km/h (0 Bft) SW 225 -2,2 C 16,1 C 0,0 km/h (0 Bft)
30.03.2014 15:25 21,1 C 21 % 1017,3 hPa 0,0 l/m 0,0 km/h (0 Bft) SW 225 -2,1 C 16,1 C 0,0 km/h (0 Bft)
30.03.2014 15:30 20,9 C 22 % 1017,1 hPa 0,0 l/m 0,0 km/h (0 Bft) SW 225 -1,6 C 16,1 C 0,0 km/h (0 Bft)
30.03.2014 15:35 20,7 C 22 % 1017,1 hPa 0,0 l/m 0,0 km/h (0 Bft) SW 225 -1,8 C 16,1 C 0,0 km/h (0 Bft)
30.03.2014 15:40 21,4 C 22 % 1017,1 hPa 0,0 l/m 0,0 km/h (0 Bft) SW 225 -1,2 C 16,1 C 0,0 km/h (0 Bft)
30.03.2014 15:45 21,8 C 22 % 1017,1 hPa 0,0 l/m 0,0 km/h (0 Bft) SW 225 -0,9 C 16,1 C 0,0 km/h (0 Bft)
30.03.2014 15:50 21,4 C 21 % 1016,9 hPa 0,0 l/m 0,0 km/h (0 Bft) SW 225 -1,8 C 16,1 C 0,0 km/h (0 Bft)
30.03.2014 15:55 21,5 C 21 % 1016,9 hPa 0,0 l/m 0,0 km/h (0 Bft) SW 225 -1,7 C 16,1 C 0,0 km/h (0 Bft)
30.03.2014 16:00 21,8 C 21 % 1016,9 hPa 0,0 l/m 0,0 km/h (0 Bft) SW 225 -1,5 C 16,1 C 0,0 km/h (0 Bft)
30.03.2014 16:05 21,3 C 21 % 1016,9 hPa 0,0 l/m 0,0 km/h (0 Bft) SW 225 -1,9 C 16,1 C 0,0 km/h (0 Bft)
30.03.2014 16:10 21,0 C 21 % 1016,8 hPa 0,0 l/m 0,0 km/h (0 Bft) SW 225 -2,2 C 16,1 C 0,0 km/h (0 Bft)
30.03.2014 16:15 20,7 C 21 % 1016,8 hPa 0,0 l/m 0,0 km/h (0 Bft) SW 225 -2,4 C 16,1 C 0,0 km/h (0 Bft)
30.03.2014 16:20 20,9 C 21 % 1016,8 hPa 0,0 l/m 0,0 km/h (0 Bft) SW 225 -2,2 C 16,1 C 0,0 km/h (0 Bft)
30.03.2014 16:25 21,2 C 21 % 1016,8 hPa 0,0 l/m 0,0 km/h (0 Bft) SW 225 -2,0 C 16,1 C 0,0 km/h (0 Bft)
30.03.2014 16:30 20,1 C 21 % 1017,0 hPa 0,0 l/m 0,0 km/h (0 Bft) SW 225 -2,9 C 16,1 C 0,0 km/h (0 Bft)
30.03.2014 16:35 20,4 C 20 % 1017,0 hPa 0,0 l/m 0,0 km/h (0 Bft) SW 225 -3,3 C 16,1 C 0,0 km/h (0 Bft)
30.03.2014 16:40 20,3 C 21 % 1017,0 hPa 0,0 l/m 0,0 km/h (0 Bft) SW 225 -2,7 C 16,1 C 0,0 km/h (0 Bft)
30.03.2014 16:45 21,0 C 21 % 1017,0 hPa 0,0 l/m 0,0 km/h (0 Bft) SW 225 -2,2 C 16,1 C 0,0 km/h (0 Bft)
30.03.2014 16:50 20,4 C 21 % 1016,8 hPa 0,0 l/m 0,0 km/h (0 Bft) SW 225 -2,6 C 16,1 C 0,0 km/h (0 Bft)
30.03.2014 16:55 19,6 C 21 % 1016,8 hPa 0,0 l/m 0,0 km/h (0 Bft) SW 225 -3,3 C 16,1 C 0,0 km/h (0 Bft)
30.03.2014 17:00 19,5 C 21 % 1016,8 hPa 0,0 l/m 0,0 km/h (0 Bft) SW 225 -3,4 C 16,1 C 0,0 km/h (0 Bft)
30.03.2014 17:05 19,3 C 21 % 1016,8 hPa 0,0 l/m 0,0 km/h (0 Bft) SW 225 -3,6 C 16,1 C 0,0 km/h (0 Bft)
30.03.2014 17:10 19,2 C 21 % 1016,9 hPa 0,0 l/m 0,0 km/h (0 Bft) SW 225 -3,6 C 16,1 C 0,0 km/h (0 Bft)
30.03.2014 17:15 18,9 C 23 % 1016,9 hPa 0,0 l/m 0,0 km/h (0 Bft) SW 225 -2,7 C 16,1 C 0,0 km/h (0 Bft)
30.03.2014 17:20 18,5 C 22 % 1016,9 hPa 0,0 l/m 0,0 km/h (0 Bft) SW 225 -3,6 C 16,1 C 0,0 km/h (0 Bft)
30.03.2014 17:25 18,4 C 22 % 1016,9 hPa 0,0 l/m 0,0 km/h (0 Bft) SW 225 -3,7 C 16,1 C 0,0 km/h (0 Bft)
30.03.2014 17:30 18,3 C 22 % 1017,3 hPa 0,0 l/m 0,0 km/h (0 Bft) SW 225 -3,8 C 16,1 C 0,0 km/h (0 Bft)
30.03.2014 17:35 18,0 C 23 % 1017,3 hPa 0,0 l/m 0,0 km/h (0 Bft) SW 225 -3,4 C 16,1 C 0,0 km/h (0 Bft)
30.03.2014 17:40 17,6 C 25 % 1017,3 hPa 0,0 l/m 0,0 km/h (0 Bft) SW 225 -2,6 C 16,1 C 0,0 km/h (0 Bft)
30.03.2014 17:45 17,7 C 23 % 1017,3 hPa 0,0 l/m 0,0 km/h (0 Bft) SW 225 -3,7 C 16,1 C 0,0 km/h (0 Bft)
30.03.2014 17:50 17,5 C 24 % 1017,1 hPa 0,0 l/m 0,0 km/h (0 Bft) SW 225 -3,3 C 16,1 C 0,0 km/h (0 Bft)
30.03.2014 17:55 17,3 C 24 % 1017,1 hPa 0,0 l/m 0,0 km/h (0 Bft) SW 225 -3,4 C 16,1 C 0,0 km/h (0 Bft)
30.03.2014 18:00 17,1 C 25 % 1017,1 hPa 0,0 l/m 0,0 km/h (0 Bft) SW 225 -3,1 C 16,1 C 0,0 km/h (0 Bft)
30.03.2014 18:05 16,7 C 27 % 1017,1 hPa 0,0 l/m 0,0 km/h (0 Bft) SW 225 -2,4 C 16,1 C 0,0 km/h (0 Bft)
30.03.2014 18:10 16,9 C 26 % 1016,9 hPa 0,0 l/m 0,0 km/h (0 Bft) SW 225 -2,7 C 16,1 C 0,0 km/h (0 Bft)
30.03.2014 18:13 16,8 C 26 % 1016,9 hPa 0,0 l/m 0,0 km/h (0 Bft) SW 225 -2,8 C 16,1 C 0,0 km/h (0 Bft)
30.03.2014 18:15 16,8 C 26 % 1016,9 hPa 0,0 l/m 0,0 km/h (0 Bft) SW 225 -2,8 C 16,1 C 0,0 km/h (0 Bft)
30.03.2014 18:20 16,7 C 25 % 1016,9 hPa 0,0 l/m 0,0 km/h (0 Bft) SW 225 -3,4 C 16,1 C 0,0 km/h (0 Bft)
30.03.2014 18:25 16,3 C 28 % 1016,9 hPa 0,0 l/m 0,0 km/h (0 Bft) SW 225 -2,2 C 16,1 C 0,0 km/h (0 Bft)
30.03.2014 18:30 16,0 C 28 % 1016,6 hPa 0,0 l/m 0,0 km/h (0 Bft) SW 225 -2,5 C 16,1 C 0,0 km/h (0 Bft)
30.03.2014 18:35 15,7 C 30 % 1016,6 hPa 0,0 l/m 0,0 km/h (0 Bft) SW 225 -1,8 C 16,1 C 0,0 km/h (0 Bft)
30.03.2014 18:40 15,5 C 30 % 1016,6 hPa 0,0 l/m 0,0 km/h (0 Bft) SW 225 -2,0 C 16,1 C 0,0 km/h (0 Bft)
30.03.2014 18:45 15,2 C 30 % 1016,6 hPa 0,0 l/m 0,0 km/h (0 Bft) SW 225 -2,2 C 16,1 C 0,0 km/h (0 Bft)
30.03.2014 18:50 14,8 C 30 % 1016,6 hPa 0,0 l/m 0,0 km/h (0 Bft) SW 225 -2,6 C 16,1 C 0,0 km/h (0 Bft)
30.03.2014 18:55 14,6 C 30 % 1016,6 hPa 0,0 l/m 0,0 km/h (0 Bft) SW 225 -2,8 C 16,1 C 0,0 km/h (0 Bft)
30.03.2014 19:00 14,5 C 30 % 1016,6 hPa 0,0 l/m 0,0 km/h (0 Bft) SW 225 -2,9 C 16,1 C 0,0 km/h (0 Bft)
30.03.2014 19:05 14,6 C 30 % 1016,6 hPa 0,0 l/m 0,0 km/h (0 Bft) SW 225 -2,8 C 16,1 C 0,0 km/h (0 Bft)
30.03.2014 19:10 14,4 C 30 % 1016,6 hPa 0,0 l/m 0,0 km/h (0 Bft) SW 225 -2,9 C 16,1 C 0,0 km/h (0 Bft)
30.03.2014 19:15 14,3 C 31 % 1016,6 hPa 0,0 l/m 0,0 km/h (0 Bft) SW 225 -2,6 C 16,1 C 0,0 km/h (0 Bft)
30.03.2014 19:20 14,0 C 32 % 1016,6 hPa 0,0 l/m 0,0 km/h (0 Bft) SW 225 -2,4 C 16,1 C 0,0 km/h (0 Bft)
30.03.2014 19:25 13,8 C 33 % 1016,6 hPa 0,0 l/m 0,0 km/h (0 Bft) SW 225 -2,2 C 16,1 C 0,0 km/h (0 Bft)
30.03.2014 19:30 13,3 C 35 % 1016,1 hPa 0,0 l/m 0,0 km/h (0 Bft) SW 225 -1,8 C 16,1 C 0,0 km/h (0 Bft)
30.03.2014 19:35 13,0 C 36 % 1016,1 hPa 0,0 l/m 0,0 km/h (0 Bft) SW 225 -1,7 C 16,1 C 0,0 km/h (0 Bft)
30.03.2014 19:40 12,8 C 38 % 1016,1 hPa 0,0 l/m 0,0 km/h (0 Bft) SW 225 -1,2 C 16,1 C 0,0 km/h (0 Bft)
30.03.2014 19:45 12,3 C 41 % 1016,1 hPa 0,0 l/m 0,0 km/h (0 Bft) SW 225 -0,6 C 16,1 C 0,0 km/h (0 Bft)
30.03.2014 19:50 11,9 C 42 % 1015,9 hPa 0,0 l/m 0,0 km/h (0 Bft) SW 225 -0,6 C 16,1 C 0,0 km/h (0 Bft)
30.03.2014 19:55 11,9 C 42 % 1015,9 hPa 0,0 l/m 0,0 km/h (0 Bft) SW 225 -0,6 C 16,1 C 0,0 km/h (0 Bft)
30.03.2014 20:00 10,8 C 46 % 1015,9 hPa 0,0 l/m 0,0 km/h (0 Bft) SW 225 -0,3 C 16,1 C 0,0 km/h (0 Bft)
30.03.2014 20:05 10,8 C 48 % 1015,9 hPa 0,0 l/m 0,0 km/h (0 Bft) SW 225 0,2 C 16,1 C 0,0 km/h (0 Bft)
30.03.2014 20:10 10,5 C 49 % 1016,2 hPa 0,0 l/m 0,0 km/h (0 Bft) SW 225 0,2 C 16,1 C 0,0 km/h (0 Bft)
30.03.2014 20:15 10,1 C 51 % 1016,2 hPa 0,0 l/m 0,0 km/h (0 Bft) SW 225 0,4 C 16,1 C 0,0 km/h (0 Bft)
30.03.2014 20:20 10,0 C 53 % 1016,2 hPa 0,0 l/m 0,0 km/h (0 Bft) SW 225 0,9 C 16,1 C 0,0 km/h (0 Bft)
30.03.2014 20:25 9,3 C 55 % 1016,2 hPa 0,0 l/m 0,0 km/h (0 Bft) SW 225 0,7 C 16,1 C 0,0 km/h (0 Bft)
30.03.2014 20:30 9,0 C 56 % 1016,6 hPa 0,0 l/m 0,0 km/h (0 Bft) SW 225 0,7 C 16,1 C 0,0 km/h (0 Bft)
30.03.2014 20:35 8,9 C 56 % 1016,6 hPa 0,0 l/m 0,0 km/h (0 Bft) SW 225 0,6 C 16,1 C 0,0 km/h (0 Bft)
30.03.2014 20:40 8,9 C 56 % 1016,6 hPa 0,0 l/m 0,0 km/h (0 Bft) SW 225 0,6 C 16,1 C 0,0 km/h (0 Bft)
30.03.2014 20:45 8,5 C 58 % 1016,6 hPa 0,0 l/m 0,0 km/h (0 Bft) SW 225 0,7 C 16,1 C 0,0 km/h (0 Bft)
30.03.2014 20:50 8,4 C 57 % 1016,7 hPa 0,0 l/m 0,0 km/h (0 Bft) SW 225 0,4 C 16,1 C 0,0 km/h (0 Bft)
30.03.2014 20:55 8,7 C 56 % 1016,7 hPa 0,0 l/m 0,0 km/h (0 Bft) SW 225 0,4 C 16,1 C 0,0 km/h (0 Bft)
30.03.2014 21:00 8,5 C 56 % 1016,7 hPa 0,0 l/m 0,0 km/h (0 Bft) SW 225 0,2 C 16,1 C 0,0 km/h (0 Bft)
30.03.2014 21:05 8,6 C 55 % 1016,7 hPa 0,0 l/m 0,0 km/h (0 Bft) SW 225 0,1 C 16,1 C 0,0 km/h (0 Bft)
30.03.2014 21:10 8,5 C 56 % 1016,7 hPa 0,0 l/m 0,0 km/h (0 Bft) SW 225 0,2 C 16,1 C 0,0 km/h (0 Bft)
30.03.2014 21:15 7,6 C 56 % 1016,7 hPa 0,0 l/m 0,0 km/h (0 Bft) SW 225 -0,6 C 16,1 C 0,0 km/h (0 Bft)
30.03.2014 21:20 7,6 C 57 % 1016,7 hPa 0,0 l/m 0,0 km/h (0 Bft) SW 225 -0,4 C 16,1 C 0,0 km/h (0 Bft)
30.03.2014 21:25 7,2 C 57 % 1016,7 hPa 0,0 l/m 0,0 km/h (0 Bft) SW 225 -0,7 C 16,1 C 0,0 km/h (0 Bft)
30.03.2014 21:30 7,1 C 58 % 1016,6 hPa 0,0 l/m 0,0 km/h (0 Bft) SW 225 -0,6 C 16,1 C 0,0 km/h (0 Bft)
30.03.2014 21:35 6,7 C 59 % 1016,6 hPa 0,0 l/m 0,0 km/h (0 Bft) SW 225 -0,7 C 16,1 C 0,0 km/h (0 Bft)
30.03.2014 21:40 6,9 C 59 % 1016,6 hPa 0,0 l/m 0,0 km/h (0 Bft) SW 225 -0,5 C 16,1 C 0,0 km/h (0 Bft)
30.03.2014 21:45 7,0 C 58 % 1016,6 hPa 0,0 l/m 0,0 km/h (0 Bft) SW 225 -0,7 C 16,1 C 0,0 km/h (0 Bft)
30.03.2014 21:50 6,5 C 59 % 1016,5 hPa 0,0 l/m 0,0 km/h (0 Bft) SW 225 -0,9 C 16,1 C 0,0 km/h (0 Bft)
30.03.2014 21:55 7,0 C 59 % 1016,5 hPa 0,0 l/m 0,0 km/h (0 Bft) SW 225 -0,5 C 16,1 C 0,0 km/h (0 Bft)
30.03.2014 22:00 7,2 C 58 % 1016,5 hPa 0,0 l/m 0,0 km/h (0 Bft) SW 225 -0,5 C 16,1 C 0,0 km/h (0 Bft)
30.03.2014 22:05 7,0 C 58 % 1016,5 hPa 0,0 l/m 0,0 km/h (0 Bft) SW 225 -0,7 C 16,1 C 0,0 km/h (0 Bft)
30.03.2014 22:10 6,7 C 58 % 1016,4 hPa 0,0 l/m 0,0 km/h (0 Bft) SW 225 -1,0 C 16,1 C 0,0 km/h (0 Bft)
30.03.2014 22:15 6,0 C 58 % 1016,4 hPa 0,0 l/m 0,0 km/h (0 Bft) SW 225 -1,6 C 16,1 C 0,0 km/h (0 Bft)
30.03.2014 22:20 5,8 C 59 % 1016,4 hPa 0,0 l/m 0,0 km/h (0 Bft) SW 225 -1,6 C 16,1 C 0,0 km/h (0 Bft)
30.03.2014 22:25 5,3 C 59 % 1016,4 hPa 0,0 l/m 0,0 km/h (0 Bft) SW 225 -2,0 C 16,1 C 0,0 km/h (0 Bft)
30.03.2014 22:30 4,9 C 60 % 1016,2 hPa 0,0 l/m 0,0 km/h (0 Bft) SW 225 -2,2 C 16,1 C 0,0 km/h (0 Bft)
30.03.2014 22:35 4,7 C 61 % 1016,2 hPa 0,0 l/m 0,0 km/h (0 Bft) SW 225 -2,2 C 16,1 C 0,0 km/h (0 Bft)
30.03.2014 22:40 4,7 C 63 % 1016,2 hPa 0,0 l/m 0,0 km/h (0 Bft) SW 225 -1,7 C 16,1 C 0,0 km/h (0 Bft)
30.03.2014 22:45 4,4 C 64 % 1016,2 hPa 0,0 l/m 0,0 km/h (0 Bft) SW 225 -1,8 C 16,1 C 0,0 km/h (0 Bft)
30.03.2014 22:50 4,1 C 63 % 1016,1 hPa 0,0 l/m 0,0 km/h (0 Bft) SW 225 -2,3 C 16,1 C 0,0 km/h (0 Bft)
30.03.2014 22:55 4,3 C 66 % 1016,1 hPa 0,0 l/m 0,0 km/h (0 Bft) SW 225 -1,5 C 16,1 C 0,0 km/h (0 Bft)
30.03.2014 23:00 4,3 C 67 % 1016,1 hPa 0,0 l/m 0,0 km/h (0 Bft) SW 225 -1,3 C 16,1 C 0,0 km/h (0 Bft)
30.03.2014 23:05 4,0 C 66 % 1016,1 hPa 0,0 l/m 0,0 km/h (0 Bft) SW 225 -1,8 C 16,1 C 0,0 km/h (0 Bft)
30.03.2014 23:10 3,9 C 69 % 1016,2 hPa 0,0 l/m 0,0 km/h (0 Bft) SW 225 -1,3 C 16,1 C 0,0 km/h (0 Bft)
30.03.2014 23:13 3,5 C 68 % 1016,2 hPa 0,0 l/m 0,0 km/h (0 Bft) SW 225 -1,8 C 16,1 C 0,0 km/h (0 Bft)
30.03.2014 23:15 3,5 C 68 % 1016,2 hPa 0,0 l/m 0,0 km/h (0 Bft) SW 225 -1,8 C 16,1 C 0,0 km/h (0 Bft)
30.03.2014 23:20 3,3 C 67 % 1016,2 hPa 0,0 l/m 0,0 km/h (0 Bft) SW 225 -2,2 C 16,1 C 0,0 km/h (0 Bft)
30.03.2014 23:25 3,3 C 68 % 1016,2 hPa 0,0 l/m 0,0 km/h (0 Bft) SW 225 -2,0 C 16,1 C 0,0 km/h (0 Bft)
30.03.2014 23:30 3,1 C 68 % 1016,2 hPa 0,0 l/m 0,0 km/h (0 Bft) SW 225 -2,2 C 16,1 C 0,0 km/h (0 Bft)
30.03.2014 23:35 3,1 C 69 % 1016,2 hPa 0,0 l/m 0,0 km/h (0 Bft) SW 225 -2,0 C 16,1 C 0,0 km/h (0 Bft)
30.03.2014 23:40 3,0 C 70 % 1016,2 hPa 0,0 l/m 0,0 km/h (0 Bft) SW 225 -1,9 C 16,1 C 0,0 km/h (0 Bft)
30.03.2014 23:45 3,0 C 71 % 1016,2 hPa 0,0 l/m 0,0 km/h (0 Bft) SW 225 -1,7 C 16,1 C 0,0 km/h (0 Bft)
30.03.2014 23:50 2,8 C 72 % 1016,1 hPa 0,0 l/m 0,0 km/h (0 Bft) SW 225 -1,7 C 16,1 C 0,0 km/h (0 Bft)
30.03.2014 23:55 2,7 C 72 % 1016,1 hPa 0,0 l/m 0,0 km/h (0 Bft) SW 225 -1,8 C 16,1 C 0,0 km/h (0 Bft)
_ Min-Zeit 07:15 16:35 20:05 - 23:55 - - 07:15 23:55 23:55
Minimum _ -1,4 C 20 % 1015,9 hPa - 0,0 km/h (0 Bft) - - -5,4 C 16,1 C 0,0 km/h (0 Bft)
_ Max-Zeit 12:25 00:55 12:05 23:55 23:55 - - 09:45 23:55 23:55
Maximum _ 22,1 C 82 % 1019,2 hPa 0,0 l/m 0,0 km/h
SW (0 Bft)
- - 4,3 C 16,1 C 0,0 km/h
SW (0 Bft)
Durchschnitt _ 9,7 C 51 % 1017,4 hPa #0,0 l/m 0,0 km/h (0 Bft) - - - -1,9 C 16,1 C 0,0 km/h (0 Bft)